Flag for Sweden Weather past 2 weeks in Linköping, Sweden

Now
55 °F

Partly sunny.


Feels Like: 53 °F
Forecast: 41 / 54 °F
Wind: 10 mph from South

Location: Linkoping / Saab

Current Time: Apr 25, 2015 at 3:01:54 PM

Latest Report: Apr 25, 2015 at 2:20 PM


Visibility: N/A

Pressure: 29.59 "Hg

Humidity: 67%

Dew point: 45 °F

Location of LinköpingLocation

Historic Weather in Linköping — Graph

°F

Linköping temperature yesterday

Maximum temperature yesterday: 54 °F (at 4:20 PM)
Minimum temperature yesterday: 43 °F (at 4:20 AM)
Average temperature yesterday: 48 °F

Past Weeks' High & Low Weather Summary

 TemperatureHumidityPressure
High64 °F (Apr 11, 5:20 PM)100% (Apr 11, 4:20 AM)30.27 "Hg (Apr 11, 4:20 AM)
Low32 °F (Apr 14, 4:20 AM)21% (Apr 20, 7:50 PM)29.39 "Hg (Apr 15, 6:50 PM)
Average47 °F62%29.89 "Hg
* Reported Apr 10 1:20 PM — Apr 25 1:50 PM, Linköping, Weather by CustomWeather, © 2015

Note: Actual official high and low records may vary slightly from our data, if they occured in-between our weather recording intervals... More about our weather records

Advertising

Linköping weather history for previous 24 hours

 ConditionsComfort  
Time TempWeatherWind HumidityBarometerVisibility
1:50 PM
Sat, Apr 25
54 °FLight rain. Passing clouds.7 mph72%29.59 "HgN/A
1:20 PM55 °FPartly sunny.13 mph59%29.59 "HgN/A
12:50 PM59 °FPartly sunny.14 mph51%29.59 "HgN/A
12:20 PM57 °FRefreshingly cool.10 mph59%29.59 "HgN/A
11:50 AM57 °FPassing clouds.12 mph59%29.62 "HgN/A
11:20 AM57 °FScattered clouds.12 mph59%29.62 "HgN/A
10:50 AM55 °FPassing clouds.12 mph63%29.62 "Hg6 mi
10:20 AM54 °FCool.9 mph67%29.62 "HgN/A
9:50 AM52 °FPassing clouds.7 mph72%29.65 "HgN/A
9:20 AM50 °FCool.9 mph76%29.65 "HgN/A
8:50 AM48 °FCool.9 mph76%29.65 "HgN/A
8:20 AM48 °FCool.9 mph76%29.65 "HgN/A
7:50 AM46 °FCool.8 mph82%29.65 "HgN/A
7:20 AM46 °FCool.10 mph82%29.68 "HgN/A
6:20 AM45 °FSunny.6 mph81%29.68 "Hg10 mi
5:20 AM45 °FOvercast.6 mph81%29.68 "HgN/A
4:50 AM45 °FPartly cloudy.6 mph81%29.68 "HgN/A
4:20 AM45 °FMostly cloudy.7 mph76%29.68 "HgN/A
3:50 AM45 °FOvercast.5 mph76%29.68 "HgN/A
3:20 AM45 °FOvercast.5 mph76%29.71 "HgN/A
2:50 AM45 °FOvercast.5 mph71%29.71 "HgN/A
2:20 AM45 °FPartly cloudy.3 mph71%29.71 "HgN/A
1:50 AM45 °FPassing clouds.3 mph66%29.71 "HgN/A
1:20 AM45 °FPartly cloudy.5 mph61%29.71 "HgN/A
12:50 AM45 °FPassing clouds.5 mph61%29.71 "HgN/A
12:20 AM45 °FPassing clouds.5 mph61%29.71 "HgN/A
11:20 PM
Fri, Apr 24
45 °FClear.5 mph61%29.71 "Hg10 mi
10:50 PM45 °FClear.5 mph61%29.71 "Hg10 mi
10:20 PM45 °FClear.6 mph66%29.71 "Hg10 mi
9:50 PM45 °FClear.5 mph66%29.71 "Hg10 mi
9:20 PM45 °FSunny.3 mph66%29.71 "Hg10 mi
8:50 PM46 °FSunny.2 mph57%29.71 "Hg10 mi
8:20 PM48 °FSunny.5 mph54%29.71 "Hg10 mi
7:50 PM48 °FSunny.6 mph54%29.71 "Hg10 mi
7:20 PM50 °FSunny.8 mph50%29.68 "Hg10 mi
6:50 PM50 °FSunny.9 mph47%29.71 "Hg10 mi
6:20 PM50 °FSunny.10 mph47%29.71 "Hg10 mi
5:50 PM50 °FSunny.13 mph43%29.68 "Hg10 mi
5:20 PM52 °FSunny.14 mph44%29.68 "Hg10 mi
4:50 PM52 °FSunny.17 mph38%29.68 "Hg10 mi
4:20 PM54 °FPassing clouds.14 mph41%29.68 "HgN/A
3:50 PM52 °FSunny.16 mph44%29.68 "Hg10 mi
3:20 PM52 °FPassing clouds.18 mph44%29.68 "HgN/A
Weather by CustomWeather, © 2015

See weather overviewHow to use our weather pages